Weather in Kaybichevo

Russia / Republic of Mordovia     54°20′22″N   46°14′57″E
В апреле 2022 года жителям России запретили посещать сайт meteo.paraplan.net по решению Генеральной прокуратуры. Аудитория сайта уменьшилась в 10 раз. Владельцы сайта не видят смысла в поддержке погодного сервера в таких условиях. Сайт будет закрыт в октябре.
temp.,
°C
wind,
m/s
gust,
m/s
humid.,
%
clouds,
%
prec.,
mm/h
press.,
hPa
HPBL,
m
3 october, mon
mon300:00+14sse41488100 0.6 1009455
03:00+15sse61585100 0.8 1009515
06:00+15sse7167899 0.4 1009560
09:00+15sse81860100 0.4 1009814
12:00+18sse9194898 0.0 10101220
15:00+17sse81747100 0.0 10111305
18:00+15s71551100 0.1 10141221
21:00+13s71581100 0.8 1016997
4 october, tue
tue400:00+12sse51186100 0.5 1017795
03:00+12sse598999 0.5 1018698
06:00+11sse4992100 0.0 1019354
09:00+13sse6980100 0.0 1020749
12:00+14sse597294 0.0 1020749
15:00+14sse5960100 0.1 10201035
18:00+11sse71473100 0.0 1021850
21:00+11s61568100 0.0 1021875
5 october, wed
wed500:00+11s61360100 0.0 1021685
03:00+10s5127195 0.0 1021574
06:00+10sse51279100 0.0 1021558
09:00+11s61270100 0.0 1020592
12:00+15s7105668 0.0 10181083
15:00+15s696292 0.1 10171067
18:00+12ssw41084100 0.6 1018306
21:00+10ssw388319 0.7 1018174
6 october, thu
thu600:00+10sw3979100 0.0 1017615
03:00+8sw488376 0.5 1017409
06:00+7wsw378764 0.1 1017451
09:00+8wsw467480 0.1 1018816
12:00+8w577278 0.1 10171000
15:00+8wsw4775100 0.2 1018816
18:00+7wsw3680100 0.1 1018359
21:00+7sw258383 0.1 1018216
7 october, fri
fri700:00+5ssw2292100 0.0 101744
03:00+7s3894100 0.2 1015388
06:00+9wsw51196100 1.1 1013639
09:00+10w51192100 1.3 1014634
12:00+11w61086100 0.1 1015976
15:00+12w61068100 0.1 10161221
18:00+9w61278100 0.1 1018820
21:00+10w512705 0.1 1018641